Orbital Elements at Epoch 2459200.5 (2020-Dec-17.0) TDB
Reference: JPL 16 (heliocentric ecliptic J2000)
Element | Value | Uncertainty (1-sigma) | Units |
e | .04087680707069079 | 5.6121e-08 | |
a | 3.08926083131758 | 3.5244e-08 | au |
q | 2.962981712324769 | 1.7533e-07 | au |
i | 16.04277717785254 | 5.8074e-06 | deg |
node | 146.6091320381225 | 1.9014e-05 | deg |
peri | 219.3452863164565 | 6.5091e-05 | deg |
M | 56.79776712825422 | 6.1005e-05 | deg |
tp | 2458887.597483510581 (2020-Feb-08.09748351) | 0.00033749 | TDB |
period | 1983.262927956817 5.43 | 3.3939e-05 9.292e-08 | d yr |
n | .1815190486976312 | 3.1063e-09 | deg/d |
Q | 3.215539950310391 | 3.6684e-08 | au |
|
| | Orbit Determination Parameters
Additional Information
|